TimeEDT,TemperatureF,Dew PointF,Humidity,Sea Level PressureIn,VisibilityMPH,Wind Direction,Wind SpeedMPH,Gust SpeedMPH,PrecipitationIn,Events,Conditions,WindDirDegrees,DateUTC
12:51 AM,60.1,48.9,67,30.04,10.0,NE,10.4,-,N/A,,Clear,40,2013-07-25 04:51:00
1:51 AM,57.9,48.9,72,30.04,10.0,NNE,3.5,-,N/A,,Clear,20,2013-07-25 05:51:00
2:51 AM,57.0,48.9,74,30.03,10.0,NE,3.5,-,N/A,,Clear,50,2013-07-25 06:51:00
3:51 AM,55.9,48.9,77,30.02,10.0,Calm,Calm,-,N/A,,Clear,0,2013-07-25 07:51:00
4:51 AM,55.0,48.9,80,30.03,10.0,NNE,3.5,-,N/A,,Clear,30,2013-07-25 08:51:00
5:51 AM,55.0,48.9,80,30.04,10.0,NE,3.5,-,N/A,,Partly Cloudy,50,2013-07-25 09:51:00
6:51 AM,55.0,48.9,80,30.05,10.0,NNE,4.6,-,N/A,,Partly Cloudy,30,2013-07-25 10:51:00
7:51 AM,57.0,50.0,77,30.07,10.0,ENE,4.6,-,N/A,,Partly Cloudy,70,2013-07-25 11:51:00
8:51 AM,59.0,50.0,72,30.07,10.0,ENE,5.8,-,N/A,,Partly Cloudy,70,2013-07-25 12:51:00
9:51 AM,63.0,50.0,63,30.08,10.0,Variable,4.6,-,N/A,,Partly Cloudy,0,2013-07-25 13:51:00
10:51 AM,66.0,50.0,56,30.09,10.0,North,4.6,-,N/A,,Scattered Clouds,10,2013-07-25 14:51:00
11:51 AM,69.1,51.1,53,30.09,10.0,NE,9.2,-,N/A,,Scattered Clouds,50,2013-07-25 15:51:00
12:51 PM,70.0,48.9,47,30.08,10.0,ENE,3.5,-,N/A,,Scattered Clouds,70,2013-07-25 16:51:00
1:51 PM,73.0,50.0,44,30.08,10.0,NE,8.1,-,N/A,,Scattered Clouds,40,2013-07-25 17:51:00
2:51 PM,73.0,46.9,39,30.08,10.0,North,8.1,17.3,N/A,,Scattered Clouds,360,2013-07-25 18:51:00
3:51 PM,73.0,46.9,39,30.07,10.0,NE,8.1,-,N/A,,Scattered Clouds,50,2013-07-25 19:51:00
4:51 PM,75.0,48.0,38,30.08,10.0,NE,8.1,-,N/A,,Scattered Clouds,40,2013-07-25 20:51:00
5:51 PM,75.9,48.9,38,30.08,10.0,NNW,10.4,-,N/A,,Scattered Clouds,330,2013-07-25 21:51:00
6:51 PM,75.0,48.0,38,30.08,10.0,NE,10.4,-,N/A,,Partly Cloudy,40,2013-07-25 22:51:00
7:51 PM,73.0,48.0,41,30.08,10.0,Variable,3.5,-,N/A,,Partly Cloudy,0,2013-07-25 23:51:00
8:51 PM,72.0,48.9,44,30.08,10.0,North,3.5,-,N/A,,Partly Cloudy,360,2013-07-26 00:51:00
9:51 PM,66.0,52.0,60,30.10,10.0,WNW,3.5,-,N/A,,Clear,290,2013-07-26 01:51:00
10:51 PM,64.0,53.1,67,30.11,10.0,Calm,Calm,-,N/A,,Clear,0,2013-07-26 02:51:00
11:51 PM,63.0,53.1,70,30.11,10.0,WNW,3.5,-,N/A,,Clear,300,2013-07-26 03:51:00